Zahran, Saudi Arabia

1:11 AM AST on December 07, 2016 (GMT +0300)
King Abdulaziz Air Base

Weather History for OEDR - November, 2012

Change the Weather History Date:

Thursday, November 8, 2012

  Actual Average Record
Temperature  
Mean Temperature 80 °F -  
Max Temperature 95 °F 86 °F 95 °F (2012)
Min Temperature 66 °F 65 °F 57 °F (2014)
Cooling Degree Days 16    
Growing Degree Days 30 (Base 50)    
Moisture  
Dew Point 62 °F    
Average Humidity 59    
Maximum Humidity 94    
Minimum Humidity 28    
Precipitation  
Precipitation 0.00 in - - ()
Sea Level Pressure  
Sea Level Pressure 29.87 in    
Wind  
Wind Speed 7 mph ()    
Max Wind Speed 14 mph    
Max Gust Speed -    
Visibility 5.6 miles    
Events      
Averages and records for this station are not official NWS values.
T = Trace of Precipitation, MM = Missing Value Source: Averaged Metar Reports

Daily Weather History Graph

Daily Weather History Graph

Search for Another Location

Airport or City:

Trip Planner

Search our weather history database for the weather conditions in past years. The results will help you decide how hot, cold, wet, or windy it might be!

Date:

Astronomy

Nov. 08, 2012 Rise Set
Actual Time 5:53 AM AST 4:52 PM AST
Civil Twilight 5:29 AM AST 5:16 PM AST
Nautical Twilight 5:01 AM AST 5:44 PM AST
Astronomical Twilight 4:34 AM AST 6:11 PM AST
Moon No Moon Rise 12:49 PM AST (11/8)
Length of Visible Light 11h 47m
Length of Day
10h 59m
Last Quarter, 36% of the Moon is Illuminated
Nov 8
Last Quarter
Nov 14
New
Nov 20
First Quarter
Nov 28
Full
Dec 6
Last Quarter

Hourly Weather History & Observations

Time (AST) Temp. Heat Index Dew Point Humidity Pressure Visibility Wind Dir Wind Speed Gust Speed Precip Events Conditions
12:00 AM 70 °F - 68 °F 91% 29.88 in 6 mi West 6.9 mph - -  
12:00 AM 69.8 °F - 68.0 °F 94% 29.89 in - West 6.9 mph - N/A   Clear
1:00 AM 68.0 °F - 66.2 °F 94% 29.86 in 5.0 mi West 6.9 mph - N/A   Clear
2:00 AM 68.0 °F - 64.4 °F 88% 29.86 in 5.0 mi West 6.9 mph - N/A   Clear
3:00 AM 68 °F - 64 °F 85% 29.86 in 5 mi West 6.9 mph - -   Mist
3:00 AM 68.0 °F - 64.4 °F 88% 29.86 in 5.0 mi West 6.9 mph - N/A   Clear
4:00 AM 68.0 °F - 62.6 °F 83% 29.86 in 5.0 mi West 8.1 mph - N/A   Clear
5:00 AM 69.8 °F - 60.8 °F 73% 29.86 in - WNW 4.6 mph - N/A   Clear
6:00 AM 68 °F - 59 °F 65% 29.90 in 6 mi West 9.2 mph - -   Clear
6:00 AM 68.0 °F - 59.0 °F 73% 29.89 in - West 9.2 mph - N/A   Clear
7:00 AM 68.0 °F - 55.4 °F 64% 29.89 in - West 6.9 mph - N/A   Clear
8:00 AM 73.4 °F - 51.8 °F 47% 29.92 in - West 8.1 mph - N/A   Clear
9:00 AM 78 °F - 52 °F 29% 29.92 in 6 mi WNW 10.4 mph - -  
9:00 AM 78.8 °F - 51.8 °F 39% 29.92 in - WNW 10.4 mph - N/A   Clear
10:00 AM 86.0 °F 84.5 °F 55.4 °F 35% 29.92 in - WNW 11.5 mph - N/A   Clear
11:00 AM 89.6 °F 90.1 °F 62.6 °F 40% 29.89 in - NNW 9.2 mph - N/A   Clear
12:00 PM 92 °F - 64 °F 30% 29.87 in 6 mi North 9.2 mph - -   Scattered Clouds
12:00 PM 93.2 °F 94.9 °F 64.4 °F 38% 29.86 in - North 9.2 mph - N/A   Clear
1:00 PM 93.2 °F 96.2 °F 66.2 °F 41% 29.83 in - North 11.5 mph - N/A   Clear
2:00 PM 93.2 °F 94.9 °F 64.4 °F 38% 29.83 in - North 12.7 mph - N/A   Clear
3:00 PM 92 °F - 63 °F 28% 29.84 in 6 mi North 13.8 mph - -  
3:00 PM 93.2 °F 94.1 °F 62.6 °F 36% 29.83 in - North 13.8 mph - N/A   Clear
4:00 PM 89.6 °F 92.2 °F 66.2 °F 46% 29.83 in - North 11.5 mph - N/A   Clear
5:00 PM 86.0 °F 88.2 °F 66.2 °F 51% 29.86 in - North 9.2 mph - N/A   Clear
6:00 PM 83 °F - 64 °F 44% 29.87 in 6 mi North 9.2 mph - -  
6:00 PM 82.4 °F 83.9 °F 64.4 °F 54% 29.86 in - North 9.2 mph - N/A   Clear
7:00 PM 80.6 °F 82.3 °F 64.4 °F 58% 29.89 in - North 6.9 mph - N/A   Clear
8:00 PM 78.8 °F - 62.6 °F 57% 29.89 in - North 6.9 mph - N/A   Clear
9:00 PM 77 °F - 63 °F 52% 29.89 in 6 mi North 5.8 mph - -  
9:00 PM 77.0 °F - 62.6 °F 61% 29.89 in - North 5.8 mph - N/A   Clear
10:00 PM 75.2 °F - 66.2 °F 73% 29.89 in - North 6.9 mph - N/A   Clear
11:00 PM 73.4 °F - 66.2 °F 78% 29.86 in - West 4.6 mph - N/A   Clear